TG8ARF-18 Weather Reports


Display with metric or nautical units.
time (UTC)temp
F
wind
direction
speed
MPH
gust
MPH
rain 1hr
in
rain 24hr
in
rain mn
in
humidity
%
barometer
mb
20260507051713 62 66 1.0 1.0 0.00 0.00 0.00 91 1019.0
20260507050712 60 66 1.0 1.0 0.00 0.00 0.00 91 1019.0
20260507045711 58 66 2.0 2.0 0.00 0.00 0.00 91 1018.0
20260507044711 62 58 3.0 1.0 0.00 0.00 0.00 91 1018.0
20260507043710 60 58 3.0 1.0 0.00 0.00 0.00 91 1018.0
20260507042709 58 58 3.0 2.0 0.00 0.00 0.00 91 1018.0
20260507041709 62 58 3.0 1.0 0.00 0.00 0.00 90 1018.0
20260507040708 60 58 3.0 1.0 0.00 0.00 0.00 90 1018.0
20260507035707 58 58 3.0 2.0 0.00 0.00 0.00 90 1018.0
20260507034707 62 77 1.0 1.0 0.00 0.00 0.00 91 1018.0
20260507033706 60 77 1.0 1.0 0.00 0.00 0.00 91 1018.0
20260507032705 58 77 2.0 1.0 0.00 0.00 0.00 91 1018.0
20260507031705 64 77 1.0 1.0 0.00 0.00 0.00 89 1018.0
20260507030704 64 77 1.0 1.0 0.00 0.00 0.00 89 1018.0
20260507025704 62 77 1.0 1.0 0.00 0.00 0.00 89 1017.0
20260507024703 60 77 1.0 1.0 0.00 0.00 0.00 89 1017.0
20260507023702 58 77 2.0 1.0 0.00 0.00 0.00 89 1017.0
20260507022702 63 93 1.0 1.0 0.00 0.00 0.00 91 1017.0
20260507020701 61 93 1.0 1.0 0.00 0.00 0.00 91 1017.0
20260507015700 61 93 1.0 1.0 0.00 0.00 0.00 91 1017.0
20260507014659 59 93 1.0 1.0 0.00 0.00 0.00 91 1017.0
20260507013659 65 184 1.0 1.0 0.00 0.00 0.00 90 1016.0
20260507012658 65 184 1.0 1.0 0.00 0.00 0.00 90 1016.0
20260507011658 63 184 1.0 1.0 0.00 0.00 0.00 90 1016.0
20260507010657 61 184 1.0 1.0 0.01 0.00 0.00 90 1016.0
20260507005657 59 184 1.0 1.0 0.01 0.00 0.00 90 1016.0
20260507004656 67 184 1.0 1.0 0.00 0.00 0.00 87 1015.0
20260507003655 66 184 1.0 1.0 0.00 0.00 0.00 87 1015.0
20260507002655 67 230 3.0 1.0 0.04 0.00 0.00 88 1015.0
20260507001654 65 230 3.0 1.0 0.03 0.00 0.00 88 1015.0
20260507000653 66 230 3.0 1.0 0.02 0.00 0.00 86 1015.0
20260506235653 64 230 3.0 1.0 0.00 0.00 0.00 86 1015.0
20260506234652 62 230 3.0 1.0 0.00 0.00 0.00 86 1015.0
20260506233652 66 210 4.0 3.0 0.00 0.00 0.00 82 1015.0
20260506232651 64 210 4.0 3.0 0.00 0.00 0.00 82 1014.0
20260506231650 62 210 4.0 3.0 0.00 0.00 0.00 82 1014.0
20260506230649 62 210 4.0 3.0 0.00 0.00 0.00 82 1014.0
20260506225648 76 210 4.0 3.0 0.00 0.00 0.00 79 1014.0
20260506224648 70 211 7.0 5.0 0.00 0.00 0.00 79 1014.0
20260506223647 70 211 7.0 5.0 0.00 0.00 0.00 79 1014.0
20260506222647 68 211 7.0 5.0 0.00 0.00 0.00 79 1014.0
20260506221646 66 211 7.0 5.0 0.00 0.00 0.00 79 1014.0
20260506220645 70 211 7.0 5.0 0.00 0.00 0.00 80 1014.0
20260506215645 68 211 7.0 5.0 0.00 0.00 0.00 80 1014.0
20260506214644 66 211 7.0 5.0 0.00 0.00 0.00 80 1014.0
20260506213643 66 211 7.0 5.0 0.00 0.00 0.00 80 1014.0
20260506212643 76 214 7.0 6.0 0.00 0.00 0.00 78 1014.0
20260506211642 76 214 7.0 6.0 0.00 0.00 0.00 78 1014.0
20260506210031 76 214 7.0 6.0 0.00 0.00 0.00 78 1014.0
20260506205031 74 214 7.0 6.0 0.00 0.00 0.00 78 1014.0
20260506204030 73 214 7.0 6.0 0.00 0.00 0.00 77 1014.0
20260506203029 72 210 7.0 7.0 0.00 0.00 0.00 69 1014.0
20260506202020 70 210 7.0 7.0 0.00 0.00 0.00 69 1014.0
20260506201019 68 210 7.0 7.0 0.00 0.00 0.00 69 1014.0
20260506200018 68 210 7.0 7.0 0.00 0.00 0.00 69 1014.0
20260506195018 66 210 7.0 7.0 0.00 0.00 0.00 69 1014.0
20260506194017 66 210 7.0 7.0 0.00 0.00 0.00 69 1014.0
20260506193016 80 210 7.0 7.0 0.00 0.00 0.00 67 1015.0
20260506192016 74 213 7.0 7.0 0.00 0.00 0.00 62 1015.0
20260506191015 72 213 7.0 7.0 0.00 0.00 0.00 62 1015.0
20260506190015 70 213 7.0 7.0 0.00 0.00 0.00 62 1015.0
20260506185014 68 213 7.0 7.0 0.00 0.00 0.00 62 1015.0
20260506184013 66 213 7.0 7.0 0.00 0.00 0.00 62 1015.0
20260506183013 78 213 7.0 7.0 0.00 0.00 0.00 60 1015.0
20260506182012 79 216 7.0 7.0 0.00 0.00 0.00 58 1015.0
20260506181012 77 216 7.0 7.0 0.00 0.00 0.00 59 1015.0
20260506180011 77 216 7.0 7.0 0.00 0.00 0.00 59 1015.0
20260506175010 76 216 7.0 7.0 0.00 0.00 0.00 59 1015.0
20260506172928 75 218 7.0 7.0 0.00 0.00 0.00 64 1016.0
20260506171927 73 218 7.0 7.0 0.00 0.00 0.00 64 1016.0
20260506170926 71 218 7.0 7.0 0.00 0.00 0.00 64 1016.0
20260506165926 69 218 7.0 7.0 0.00 0.00 0.00 64 1016.0
20260506164925 76 219 5.0 5.0 0.00 0.00 0.00 69 1016.0
20260506163920 74 219 5.0 5.0 0.00 0.00 0.00 69 1016.0
20260506162919 74 219 5.0 5.0 0.00 0.00 0.00 69 1016.0
20260506161928 72 219 5.0 5.0 0.00 0.00 0.00 69 1016.0
20260506160928 70 219 5.0 5.0 0.00 0.00 0.00 69 1016.0
20260506155927 68 219 5.0 6.0 0.00 0.00 0.00 69 1016.0
20260506154926 74 222 4.0 1.0 0.00 0.00 0.00 83 1016.0
20260506153926 72 222 4.0 1.0 0.00 0.00 0.00 83 1016.0
20260506152925 70 222 4.0 1.0 0.00 0.00 0.00 83 1017.0
20260506151924 68 222 4.0 2.0 0.00 0.00 0.00 83 1017.0
20260506150924 72 250 1.0 1.0 0.00 0.00 0.00 86 1017.0
20260506145923 72 250 1.0 1.0 0.00 0.00 0.00 86 1017.0
20260506144922 70 250 1.0 1.0 0.00 0.00 0.00 86 1017.0
20260506143922 68 250 1.0 1.0 0.00 0.00 0.00 86 1017.0
20260506142921 66 250 1.0 1.0 0.00 0.00 0.00 86 1017.0
20260506141920 64 250 1.0 1.0 0.00 0.00 0.00 86 1017.0
20260506140920 68 33 1.0 1.0 0.00 0.00 0.00 90 1017.0
20260506135919 66 33 1.0 1.0 0.00 0.00 0.00 90 1017.0
20260506134918 64 33 1.0 1.0 0.00 0.00 0.00 90 1017.0
20260506133918 62 33 1.0 1.0 0.00 0.00 0.00 90 1017.0
20260506132917 60 33 1.0 1.0 0.00 0.00 0.00 90 1017.0
20260506131917 58 33 2.0 2.0 0.00 0.00 0.00 90 1017.0
20260506130916 64 42 3.0 1.0 0.00 0.00 0.00 91 1018.0
20260506125915 62 42 3.0 1.0 0.00 0.00 0.00 91 1018.0
20260506124915 60 42 3.0 1.0 0.00 0.00 0.00 91 1018.0
20260506123914 58 42 3.0 1.0 0.00 0.00 0.00 91 1018.0
20260506122913 56 42 3.0 1.0 0.00 0.00 0.00 91 1018.0
20260506121913 54 42 3.0 2.0 0.00 0.00 0.00 91 1018.0
20260506120912 57 42 3.0 1.0 0.00 0.00 0.00 90 1018.0
20260506115912 55 42 3.0 1.0 0.00 0.00 0.00 90 1018.0
20260506114911 53 42 3.0 2.0 0.00 0.00 0.00 90 1018.0
20260506113910 53 42 3.0 2.0 0.00 0.00 0.00 90 1018.0
20260506112910 56 48 3.0 2.0 0.00 0.00 0.00 92 1018.0
20260506111909 58 48 3.0 1.0 0.00 0.00 0.00 91 1018.0
20260506110908 56 48 3.0 2.0 0.00 0.00 0.00 91 1018.0
20260506105908 58 48 3.0 1.0 0.00 0.00 0.00 90 1018.0
20260506104907 56 48 3.0 2.0 0.00 0.00 0.00 90 1018.0
20260506103907 58 49 3.0 1.0 0.00 0.00 0.00 91 1018.0
20260506102906 56 49 3.0 2.0 0.00 0.00 0.00 91 1017.0
20260506101905 58 49 3.0 1.0 0.00 0.00 0.00 91 1017.0
20260506100905 56 49 3.0 2.0 0.00 0.00 0.00 91 1017.0
20260506095904 58 49 3.0 1.0 0.00 0.00 0.00 90 1017.0
20260506094903 56 49 3.0 2.0 0.00 0.00 0.00 90 1017.0
20260506093903 60 50 3.0 1.0 0.00 0.00 0.00 92 1017.0
20260506092902 58 50 3.0 1.0 0.00 0.00 0.00 92 1017.0
20260506091902 56 50 3.0 2.0 0.00 0.00 0.00 92 1017.0
20260506090901 60 50 3.0 1.0 0.00 0.00 0.00 91 1017.0
20260506085900 58 50 3.0 1.0 0.00 0.00 0.00 91 1017.0
20260506084859 56 50 3.0 2.0 0.00 0.00 0.00 91 1017.0
20260506083859 60 47 3.0 1.0 0.00 0.00 0.00 93 1017.0
20260506082858 58 47 3.0 1.0 0.00 0.00 0.00 93 1017.0
20260506081858 56 47 3.0 2.0 0.00 0.00 0.00 93 1017.0
20260506080857 60 47 3.0 1.0 0.00 0.00 0.00 92 1017.0
20260506072846 58 43 3.0 1.0 0.00 0.00 0.00 92 1018.0
20260506071845 56 43 3.0 2.0 0.00 0.00 0.00 92 1018.0
20260506070844 60 43 3.0 1.0 0.00 0.00 0.00 91 1018.0
20260506061841 56 43 4.0 3.0 0.00 0.00 0.00 92 1018.0
20260506060841 61 43 4.0 3.0 0.00 0.00 0.00 91 1018.0